GFSNGP_850_dewp_087.txt.gz
Dewpoint
1 1 2 3 3 3 6 7 8 7 7 6 7 7 7 7 7 6 5 4 4 4 6 7 8 8 9 10 10 10 10 10 9 9 9 9 9 8 8 8 8 8 8 8
1 -0 0 1 -0 1 3 6 7 6 7 4 5 8 7 7 8 6 5 4 3 4 3 3 4 5 6 8 8 10 10 9 9 9 9 9 10 10 9 9 9 9 9 8
3 1 1 2 0 -3 5 5 5 7 6 5 7 6 6 7 7 5 4 3 3 3 3 3 3 3 3 5 6 7 9 9 9 9 9 10 10 10 10 10 10 10 9 9
3 1 2 -3 -6 -6 -2 4 3 3 4 6 6 6 7 7 5 4 3 3 3 3 3 3 2 2 2 2 3 3 4 5 6 7 8 9 9 9 9 9 9 9 10 10
2 2 -1 -3 -6 -0 2 1 2 3 3 5 4 4 3 3 3 2 3 2 2 2 2 3 2 2 2 1 1 1 1 1 2 2 3 4 6 7 8 8 9 9 9 9
1 3 1 -3 -1 1 0 3 2 3 5 4 4 5 3 0 1 1 1 1 2 1 1 1 1 1 1 2 2 2 2 2 2 2 1 1 1 3 4 5 7 7 8 9
2 2 1 -2 3 1 3 4 3 3 3 3 3 2 0 0 1 0 0 0 0 0 0 0 0 0 1 1 2 2 2 1 1 1 1 1 1 1 2 3 4 6 7 8
2 3 2 3 3 2 3 3 2 3 2 1 -0 -1 -1 -2 -2 -1 -1 -1 -1 -1 -1 -1 -1 -0 0 -0 1 2 1 1 1 1 0 -0 -0 -0 0 1 4 4 6 6
1 1 3 2 2 3 3 3 2 2 1 0 -1 -2 -2 -3 -2 -2 -3 -3 -2 -2 -3 -2 -2 -1 -1 -0 -0 0 0 0 0 0 -0 -1 -1 -1 -1 -0 0 2 3 3
4 4 3 2 1 1 -0 -1 -0 -0 -0 -0 -1 -1 -2 -3 -3 -2 -3 -4 -4 -4 -4 -3 -3 -3 -2 -2 -1 -1 -1 -1 -1 -1 -2 -3 -3 -3 -3 -2 -2 -2 -2 -1
2 2 1 0 0 -0 -0 -0 -1 -2 -3 -2 -2 -3 -4 -5 -5 -5 -5 -5 -5 -5 -5 -5 -5 -5 -4 -4 -3 -3 -3 -3 -4 -4 -4 -5 -5 -5 -5 -6 -5 -5 -6 -5
1 -1 -1 -2 -1 -0 0 -0 -2 -3 -4 -4 -3 -4 -5 -6 -8 -7 -7 -7 -7 -7 -7 -7 -6 -6 -6 -5 -5 -5 -5 -5 -5 -6 -6 -7 -7 -7 -7 -7 -8 -8 -8 -8
-1 -2 -2 -3 -3 -2 -2 -3 -4 -4 -5 -6 -6 -6 -6 -8 -8 -8 -8 -8 -7 -8 -8 -7 -7 -7 -7 -7 -7 -6 -6 -6 -7 -7 -7 -7 -8 -8 -8 -8 -8 -8 -8 -8
-2 -2 -2 -3 -4 -5 -5 -5 -5 -5 -6 -7 -8 -8 -8 -8 -9 -8 -9 -9 -8 -8 -8 -8 -8 -8 -8 -8 -8 -7 -8 -8 -8 -8 -8 -8 -8 -9 -9 -9 -8 -8 -8 -8
-4 -4 -4 -4 -5 -5 -5 -6 -6 -7 -8 -8 -9 -9 -9 -9 -9 -9 -10 -9 -9 -9 -9 -9 -9 -9 -9 -9 -8 -8 -8 -8 -8 -9 -9 -9 -9 -9 -9 -9 -9 -9 -9 -9
-5 -5 -5 -6 -6 -7 -8 -8 -8 -9 -10 -10 -10 -10 -10 -10 -10 -10 -10 -10 -9 -10 -10 -9 -9 -9 -9 -9 -9 -9 -9 -9 -9 -9 -9 -9 -10 -10 -10 -10 -10 -11 -11 -10
-6 -7 -6 -7 -8 -9 -9 -9 -9 -10 -10 -11 -11 -11 -11 -11 -11 -11 -11 -11 -10 -10 -10 -10 -10 -10 -10 -10 -10 -10 -10 -10 -10 -10 -10 -11 -11 -11 -11 -11 -11 -12 -12 -12
-9 -8 -8 -8 -9 -10 -10 -11 -11 -11 -11 -12 -12 -12 -12 -11 -12 -12 -12 -12 -12 -11 -11 -12 -12 -11 -11 -11 -11 -11 -11 -11 -11 -11 -11 -12 -12 -13 -13 -13 -14 -14 -15 -15
-10 -10 -10 -10 -10 -11 -11 -12 -12 -12 -12 -12 -12 -12 -12 -12 -12 -12 -12 -12 -12 -14 -18 -24 -25 -24 -21 -17 -15 -14 -13 -12 -12 -13 -13 -13 -14 -14 -15 -16 -19 -22 -24 -27
-11 -12 -11 -11 -11 -12 -12 -12 -12 -12 -12 -12 -12 -12 -13 -13 -13 -13 -13 -16 -20 -23 -25 -26 -27 -27 -26 -24 -23 -22 -21 -19 -17 -16 -15 -16 -18 -21 -22 -23 -23 -24 -25 -26
-12 -12 -12 -12 -12 -12 -13 -13 -13 -13 -13 -13 -13 -13 -13 -14 -17 -26 -29 -29 -26 -25 -25 -27 -27 -27 -26 -25 -24 -24 -24 -24 -23 -23 -22 -23 -23 -23 -24 -24 -24 -24 -25 -26
-13 -13 -13 -13 -13 -13 -13 -13 -13 -13 -14 -14 -14 -14 -18 -22 -25 -29 -32 -30 -27 -27 -27 -28 -28 -27 -26 -26 -27 -27 -26 -26 -25 -25 -25 -25 -25 -25 -25 -26 -26 -27 -27 -28
-13 -13 -13 -13 -13 -13 -13 -13 -13 -13 -14 -14 -15 -17 -19 -22 -26 -27 -26 -29 -28 -28 -28 -29 -29 -28 -27 -27 -27 -27 -27 -27 -27 -27 -26 -25 -26 -26 -26 -27 -28 -28 -29 -29
-13 -13 -13 -13 -13 -13 -13 -14 -14 -15 -18 -18 -19 -19 -18 -19 -22 -25 -23 -23 -25 -26 -26 -27 -26 -26 -26 -27 -27 -27 -28 -29 -29 -29 -28 -28 -28 -28 -28 -28 -28 -29 -29 -28
-12 -13 -13 -13 -13 -13 -14 -14 -14 -15 -15 -17 -18 -19 -21 -21 -22 -22 -22 -21 -21 -21 -22 -23 -25 -26 -26 -26 -26 -27 -27 -27 -28 -28 -28 -28 -28 -28 -28 -28 -29 -28 -28 -28
-13 -13 -13 -13 -13 -13 -14 -14 -15 -15 -15 -16 -17 -18 -20 -20 -20 -20 -20 -20 -20 -20 -21 -22 -22 -22 -23 -24 -26 -26 -27 -27 -27 -27 -27 -26 -26 -27 -27 -27 -27 -27 -28 -28
-13 -13 -13 -13 -13 -14 -15 -14 -14 -15 -15 -16 -17 -17 -19 -19 -19 -19 -20 -20 -20 -21 -21 -21 -22 -22 -22 -24 -27 -27 -27 -28 -28 -28 -28 -28 -27 -27 -27 -26 -26 -26 -26 -26

GFSNGP_850_dewp_090.txt.gz
Dewpoint
0 0 2 2 2 3 6 5 6 3 6 5 4 6 6 7 6 4 4 3 3 3 5 6 7 8 9 9 10 10 10 10 10 10 10 10 9 9 8 8 8 8 8 8
1 -1 -1 0 -0 -0 -0 1 4 4 5 4 5 5 7 7 6 4 3 3 3 3 4 5 6 6 7 8 9 10 9 9 9 9 9 9 9 10 10 10 9 9 9 9
1 1 -0 -0 -0 -4 -5 4 5 6 5 5 6 6 6 6 5 4 3 2 2 3 3 3 3 4 5 6 8 8 8 9 9 9 9 9 9 9 9 9 9 9 9 9
3 1 0 -4 -6 -6 -1 -0 4 4 3 5 5 4 4 4 3 1 1 2 3 3 3 2 2 2 1 2 2 3 5 6 7 8 8 8 8 8 9 9 9 9 8 9
2 2 -2 -4 -3 1 0 -1 2 3 3 6 4 2 2 1 2 2 1 1 1 3 2 2 2 2 2 1 1 1 1 1 1 1 2 2 4 6 7 8 8 8 8 9
1 2 1 -3 -2 1 -0 -3 3 3 4 5 5 6 2 0 0 2 1 1 1 1 1 1 1 1 1 2 1 1 1 1 0 0 1 1 1 1 1 2 3 5 6 7
2 1 1 -1 3 0 1 1 3 2 3 3 2 2 -1 -1 -1 0 -1 -0 -1 -1 -0 -0 -0 -0 -0 0 1 1 1 1 1 0 -0 -1 -0 -0 -0 1 2 4 4 5
1 2 2 2 2 2 3 3 2 2 0 -1 -1 -2 -2 -2 -2 -2 -2 -2 -2 -2 -2 -2 -1 -1 -1 -1 -1 -1 -1 -0 -0 -0 -0 -1 -1 -1 -1 -0 0 1 1 2
2 1 2 1 1 1 1 1 1 1 -0 -0 -2 -2 -2 -1 -3 -3 -3 -3 -3 -3 -3 -3 -3 -2 -2 -2 -1 -1 -1 -1 -1 -1 -2 -2 -2 -2 -2 -2 -2 -2 -1 -1
2 2 2 1 0 -1 -1 -2 -1 -0 -1 -1 -3 -4 -5 -4 -5 -4 -5 -5 -5 -5 -5 -5 -4 -4 -3 -3 -2 -3 -2 -2 -2 -3 -4 -4 -4 -4 -4 -4 -4 -4 -4 -5
2 1 -0 -1 -2 -2 -3 -2 -2 -2 -3 -3 -3 -4 -5 -6 -6 -6 -6 -6 -6 -6 -6 -6 -6 -5 -5 -4 -4 -4 -4 -4 -4 -5 -5 -6 -6 -6 -6 -6 -7 -7 -7 -7
1 -2 -1 -3 -3 -3 -4 -4 -4 -3 -3 -3 -4 -5 -5 -6 -7 -6 -6 -7 -7 -7 -7 -7 -7 -7 -6 -6 -6 -5 -5 -6 -6 -7 -7 -7 -7 -8 -8 -8 -8 -8 -7 -7
-2 -2 -3 -4 -4 -5 -4 -5 -5 -6 -6 -6 -6 -6 -7 -7 -8 -8 -7 -8 -8 -8 -8 -8 -8 -7 -7 -7 -7 -7 -7 -7 -7 -8 -8 -8 -8 -8 -8 -8 -8 -8 -8 -8
-3 -3 -2 -4 -5 -5 -5 -6 -6 -7 -7 -7 -8 -8 -8 -8 -9 -9 -9 -9 -9 -9 -8 -8 -8 -8 -8 -8 -8 -8 -8 -8 -8 -8 -8 -8 -9 -8 -8 -8 -9 -9 -9 -9
-5 -4 -5 -5 -5 -6 -7 -7 -7 -9 -9 -10 -9 -9 -9 -9 -10 -10 -10 -10 -9 -9 -9 -9 -9 -9 -9 -9 -9 -9 -9 -9 -9 -9 -9 -9 -9 -9 -9 -9 -10 -10 -10 -10
-6 -5 -6 -6 -7 -8 -9 -8 -9 -11 -10 -11 -10 -10 -10 -10 -11 -11 -11 -10 -10 -10 -10 -10 -10 -10 -10 -10 -9 -9 -9 -9 -9 -9 -10 -10 -10 -10 -10 -11 -11 -11 -11 -11
-7 -7 -8 -7 -8 -9 -10 -10 -10 -10 -11 -11 -11 -12 -12 -11 -11 -11 -11 -11 -11 -11 -11 -11 -11 -11 -11 -10 -10 -10 -10 -10 -11 -11 -11 -11 -11 -12 -12 -12 -12 -13 -13 -13
-9 -9 -8 -8 -9 -10 -10 -11 -11 -11 -12 -12 -12 -12 -12 -12 -12 -12 -12 -13 -13 -13 -14 -19 -19 -16 -14 -13 -13 -12 -11 -11 -11 -12 -12 -13 -13 -13 -14 -14 -16 -19 -22 -24
-10 -10 -10 -10 -10 -11 -11 -12 -12 -12 -12 -12 -12 -12 -12 -13 -13 -13 -13 -13 -13 -16 -21 -26 -25 -23 -23 -22 -19 -17 -15 -14 -14 -14 -14 -14 -15 -17 -21 -24 -26 -27 -27 -28
-11 -11 -11 -11 -11 -12 -12 -12 -12 -12 -13 -12 -13 -13 -13 -13 -13 -16 -25 -27 -26 -25 -24 -26 -26 -27 -26 -25 -24 -23 -22 -21 -20 -19 -20 -21 -22 -23 -24 -25 -25 -26 -27 -28
-12 -12 -12 -12 -12 -13 -13 -13 -13 -13 -13 -13 -13 -13 -13 -16 -24 -29 -29 -29 -27 -27 -27 -28 -29 -28 -27 -27 -26 -25 -25 -24 -24 -24 -24 -24 -24 -24 -25 -26 -26 -27 -28 -29
-13 -13 -13 -13 -13 -13 -13 -13 -13 -13 -13 -13 -14 -18 -21 -23 -25 -27 -29 -30 -29 -30 -28 -29 -30 -30 -28 -27 -27 -27 -27 -27 -27 -27 -27 -27 -27 -27 -27 -27 -27 -28 -29 -29
-13 -13 -13 -13 -13 -13 -13 -13 -14 -14 -14 -16 -17 -18 -18 -18 -20 -24 -25 -27 -27 -27 -27 -28 -28 -28 -28 -27 -28 -28 -28 -28 -29 -29 -29 -28 -28 -28 -28 -28 -29 -29 -29 -29
-13 -13 -13 -13 -13 -13 -13 -14 -14 -15 -17 -17 -18 -19 -21 -21 -22 -23 -24 -23 -24 -25 -25 -26 -27 -28 -28 -28 -28 -29 -29 -29 -29 -30 -30 -30 -30 -30 -30 -30 -30 -30 -29 -29
-13 -13 -13 -13 -14 -14 -14 -14 -14 -14 -15 -16 -16 -17 -19 -21 -21 -21 -21 -21 -21 -21 -22 -22 -23 -24 -24 -25 -26 -27 -27 -28 -28 -28 -28 -28 -28 -28 -28 -28 -28 -29 -29 -29
-13 -13 -13 -13 -13 -13 -13 -14 -14 -14 -15 -15 -16 -17 -18 -20 -20 -20 -20 -20 -20 -21 -21 -21 -22 -22 -23 -25 -27 -28 -28 -28 -29 -29 -28 -27 -28 -28 -29 -29 -28 -28 -27 -27
-13 -13 -13 -13 -14 -14 -15 -16 -15 -15 -15 -16 -17 -17 -18 -19 -20 -20 -20 -20 -20 -21 -21 -21 -21 -22 -22 -24 -28 -29 -29 -29 -29 -29 -29 -28 -28 -29 -28 -28 -28 -28 -28 -28

GFSNGP_850_dewp_093.txt.gz
Dewpoint
0 1 2 1 0 0 3 3 4 1 1 1 2 6 6 6 4 4 3 2 1 1 2 6 6 7 8 9 9 9 9 9 10 10 9 9 8 8 8 8 8 8 8 8
-1 -0 -1 -1 -3 -1 -0 -0 1 1 3 2 5 4 6 5 4 3 2 1 1 -1 1 2 3 5 6 7 9 9 9 9 9 9 9 9 9 9 9 9 9 9 9 8
-1 -0 -2 -4 -2 -6 -5 -4 1 3 2 3 4 4 5 4 3 1 0 0 1 1 1 1 2 3 5 6 7 7 7 7 8 9 9 9 9 9 9 9 9 9 9 9
0 1 -1 -6 -5 -5 -3 -3 2 3 3 4 4 3 2 1 2 1 1 1 1 2 2 2 2 2 2 2 4 5 6 4 7 8 8 8 8 8 8 8 8 8 8 8
0 -1 -3 -5 0 -0 -1 -3 3 4 4 5 3 1 -0 -0 -0 0 -0 -0 -0 1 1 1 2 2 2 1 1 2 2 1 1 1 2 4 6 7 7 7 7 7 7 8
1 -1 -1 -2 -0 1 1 -5 2 3 5 5 4 5 1 -2 -1 -1 -1 -1 -0 -0 0 1 1 0 1 1 1 1 0 0 -1 -1 -0 0 1 1 2 3 4 5 5 5
1 -0 -1 2 2 0 -2 0 1 1 1 2 1 -0 -3 -2 -3 -2 -3 -3 -3 -2 -1 -1 -1 -0 -1 -0 0 0 -0 -0 -0 -0 -1 -1 -1 -1 -0 0 1 2 3 3
0 1 2 1 1 2 3 2 2 0 -0 -1 -2 -3 -4 -3 -3 -3 -3 -4 -4 -3 -3 -3 -2 -2 -2 -2 -2 -1 -1 -1 -2 -2 -2 -2 -2 -2 -1 -1 -0 -0 -1 -0
2 3 1 0 0 -1 -0 -1 -0 -1 -2 -2 -2 -3 -2 -3 -4 -4 -4 -5 -4 -4 -4 -4 -4 -3 -4 -5 -4 -3 -2 -2 -3 -3 -3 -3 -3 -3 -3 -3 -3 -3 -3 -4
2 1 -1 -2 -2 -3 -3 -3 -3 -2 -2 -2 -3 -4 -4 -5 -5 -6 -6 -6 -6 -6 -6 -6 -5 -5 -4 -4 -4 -4 -4 -4 -5 -5 -5 -5 -5 -5 -5 -5 -5 -5 -6 -6
2 -1 -1 -3 -3 -3 -3 -4 -4 -4 -4 -4 -4 -6 -6 -7 -8 -8 -7 -7 -7 -7 -7 -6 -6 -6 -5 -5 -5 -5 -5 -5 -6 -7 -7 -7 -7 -7 -7 -7 -7 -7 -7 -7
-0 -2 -2 -4 -5 -4 -4 -5 -5 -6 -6 -6 -7 -8 -8 -9 -8 -8 -8 -8 -7 -7 -7 -7 -7 -7 -7 -7 -6 -6 -6 -6 -7 -7 -7 -7 -7 -7 -7 -7 -7 -7 -7 -7
-2 -3 -4 -5 -5 -6 -6 -6 -6 -7 -8 -8 -8 -8 -8 -9 -9 -9 -8 -8 -8 -8 -8 -8 -8 -8 -8 -7 -7 -7 -7 -7 -7 -8 -8 -8 -8 -8 -8 -8 -8 -8 -8 -8
-4 -3 -4 -5 -6 -7 -7 -7 -8 -8 -8 -9 -9 -9 -9 -9 -9 -9 -9 -9 -9 -9 -9 -9 -9 -9 -8 -8 -8 -8 -8 -8 -8 -8 -8 -8 -9 -9 -9 -9 -9 -9 -9 -9
-5 -5 -5 -6 -6 -7 -8 -8 -9 -9 -10 -10 -10 -10 -10 -10 -10 -10 -10 -10 -10 -10 -10 -9 -9 -9 -9 -9 -9 -9 -9 -9 -9 -9 -9 -9 -9 -9 -9 -10 -10 -10 -10 -10
-6 -6 -7 -7 -8 -9 -9 -9 -10 -10 -10 -10 -10 -10 -11 -11 -11 -11 -11 -10 -10 -10 -10 -10 -10 -10 -10 -10 -10 -10 -10 -10 -10 -10 -10 -10 -10 -10 -10 -11 -11 -11 -11 -11
-6 -7 -7 -8 -9 -10 -10 -11 -11 -11 -11 -11 -11 -12 -11 -11 -11 -11 -11 -11 -11 -11 -11 -12 -11 -11 -11 -11 -11 -11 -11 -11 -11 -11 -11 -11 -12 -12 -12 -13 -13 -14 -14 -14
-10 -9 -9 -9 -10 -11 -11 -12 -11 -12 -12 -12 -12 -12 -12 -12 -12 -12 -12 -12 -13 -13 -16 -21 -25 -23 -22 -19 -17 -14 -13 -12 -12 -12 -13 -13 -13 -14 -15 -17 -22 -25 -28 -28
-10 -11 -11 -11 -11 -11 -12 -12 -12 -12 -12 -12 -12 -12 -12 -12 -13 -13 -13 -13 -14 -17 -23 -29 -29 -27 -26 -26 -24 -21 -19 -17 -16 -15 -15 -16 -18 -21 -24 -26 -27 -27 -28 -29
-12 -12 -11 -12 -12 -12 -12 -12 -12 -13 -13 -13 -13 -13 -13 -13 -14 -19 -25 -26 -27 -28 -28 -29 -29 -28 -28 -28 -26 -24 -23 -21 -20 -21 -21 -22 -23 -24 -25 -25 -26 -27 -28 -28
-12 -12 -12 -12 -13 -13 -13 -13 -13 -13 -13 -14 -14 -15 -20 -24 -27 -28 -28 -26 -26 -27 -27 -27 -27 -27 -26 -26 -25 -24 -24 -24 -23 -23 -24 -24 -25 -25 -26 -27 -27 -28 -28 -29
-13 -13 -13 -13 -13 -13 -13 -13 -13 -13 -13 -14 -16 -17 -19 -20 -21 -23 -26 -26 -26 -27 -26 -27 -27 -28 -27 -26 -27 -27 -27 -27 -27 -27 -27 -27 -27 -27 -27 -28 -28 -28 -28 -28
-13 -13 -13 -13 -13 -13 -13 -13 -14 -14 -17 -19 -19 -20 -21 -22 -22 -22 -24 -25 -25 -25 -26 -27 -28 -28 -28 -27 -27 -27 -28 -28 -28 -28 -28 -28 -28 -28 -28 -29 -29 -29 -29 -29
-13 -13 -13 -13 -13 -13 -14 -14 -14 -15 -16 -16 -17 -17 -19 -21 -22 -22 -23 -22 -22 -22 -23 -24 -24 -25 -27 -27 -27 -27 -27 -27 -27 -27 -27 -28 -27 -27 -27 -28 -28 -28 -28 -28
-13 -13 -13 -13 -14 -14 -14 -14 -14 -14 -15 -15 -16 -17 -18 -19 -21 -21 -20 -20 -21 -21 -22 -22 -22 -22 -23 -25 -26 -27 -27 -27 -27 -27 -27 -27 -27 -27 -28 -28 -28 -27 -27 -27
-13 -13 -13 -13 -13 -13 -14 -14 -14 -15 -15 -15 -16 -16 -17 -18 -20 -20 -20 -20 -20 -21 -21 -21 -22 -22 -23 -24 -26 -28 -28 -27 -28 -28 -29 -28 -28 -29 -29 -28 -28 -28 -28 -28
-13 -13 -13 -14 -14 -14 -15 -16 -16 -16 -16 -16 -17 -17 -18 -19 -20 -20 -20 -20 -20 -20 -21 -21 -22 -22 -22 -23 -25 -29 -29 -30 -30 -30 -29 -29 -28 -28 -28 -28 -28 -27 -27 -28

GFSNGP_850_dewp_099.txt.gz
Dewpoint
-0 -4 -3 -0 1 1 1 -2 0 -1 -2 5 5 4 3 2 2 1 1 -0 -1 -1 1 -0 -0 1 4 8 9 9 10 9 9 9 9 9 9 9 9 9 10 10 9 9
-2 -3 -4 -4 -6 -7 -6 -5 -4 -4 4 3 3 3 3 2 1 -0 -1 -2 -1 -1 0 1 -1 -1 0 2 6 8 9 9 9 9 8 9 9 9 8 8 8 8 8 8
-2 -7 -7 -2 -5 -7 -5 -4 -3 1 3 4 3 2 1 1 -0 -1 -2 -2 -1 -1 -1 -0 0 -1 -0 -0 1 4 6 7 8 8 9 9 9 9 9 8 8 8 8 8
-3 -6 -2 -3 -5 -5 -2 -1 -1 -2 -0 3 2 -1 -2 -2 -2 -3 -3 -3 -1 -1 -0 -1 -0 0 0 0 0 1 2 3 4 4 6 8 9 9 9 9 9 8 8 8
-4 -3 -3 -3 -2 -1 -2 3 -1 -0 1 2 0 -1 -2 -3 -3 -3 -3 -3 -3 -1 -0 -0 -0 -0 0 0 0 1 1 0 1 1 2 2 3 4 5 6 5 6 7 7
-3 -5 -0 4 -1 -2 -3 3 0 -0 0 1 1 5 -1 -4 -3 -3 -3 -4 -4 -4 -2 -0 0 -0 -0 0 0 1 0 -0 -0 -0 -0 -0 0 1 2 3 1 2 3 3
-2 -2 2 1 -1 -2 1 4 1 -0 -1 -2 -2 -3 -4 -4 -4 -4 -4 -5 -5 -5 -5 -3 -2 -1 -0 -0 -0 -0 -0 -0 -0 0 -1 -1 0 1 1 2 2 0 0 2
1 -1 3 -1 -1 2 0 -1 0 -0 -1 -2 -3 -4 -5 -5 -5 -5 -5 -6 -6 -6 -6 -5 -4 -3 -3 -3 -3 -2 -1 -2 -2 -1 -1 -1 -0 -0 -0 -0 -1 -1 -1 -2
2 2 -0 -1 -1 -2 -2 -2 -2 -2 -1 -2 -3 -4 -5 -5 -6 -6 -6 -7 -7 -6 -6 -7 -6 -5 -5 -5 -5 -5 -4 -3 -3 -3 -2 -2 -3 -3 -2 -2 -3 -4 -4 -5
2 -0 -2 -2 -2 -2 -2 -3 -3 -2 -2 -2 -3 -4 -5 -5 -6 -7 -7 -7 -7 -7 -7 -7 -7 -7 -7 -7 -7 -5 -6 -6 -5 -4 -5 -5 -5 -4 -4 -5 -5 -5 -6 -6
0 -1 -2 -3 -3 -3 -3 -3 -3 -3 -4 -4 -4 -5 -6 -7 -7 -7 -8 -7 -7 -7 -7 -8 -8 -9 -8 -7 -7 -7 -7 -8 -8 -8 -7 -7 -7 -8 -7 -7 -7 -7 -7 -7
1 -1 -1 -3 -4 -4 -4 -4 -5 -5 -5 -6 -6 -6 -7 -7 -8 -8 -8 -8 -8 -8 -8 -9 -9 -8 -8 -8 -7 -7 -8 -8 -8 -8 -8 -9 -8 -8 -8 -8 -8 -8 -7 -7
-2 -2 -3 -4 -4 -4 -5 -7 -7 -7 -7 -7 -8 -8 -8 -8 -8 -8 -8 -9 -9 -9 -10 -10 -9 -8 -8 -8 -8 -8 -8 -8 -9 -9 -9 -9 -9 -9 -9 -9 -9 -8 -8 -8
-2 -2 -2 -3 -4 -6 -7 -8 -8 -9 -9 -8 -8 -8 -9 -9 -10 -10 -11 -11 -11 -11 -11 -10 -9 -9 -9 -9 -8 -9 -8 -8 -9 -9 -9 -9 -9 -9 -10 -10 -10 -10 -9 -9
-4 -4 -5 -6 -6 -7 -7 -8 -9 -9 -9 -9 -9 -9 -9 -10 -11 -12 -11 -11 -11 -11 -11 -10 -10 -10 -10 -9 -9 -9 -9 -9 -9 -9 -9 -9 -10 -10 -11 -11 -11 -12 -12 -11
-6 -6 -6 -7 -7 -8 -8 -8 -8 -9 -9 -9 -10 -11 -11 -12 -12 -12 -11 -11 -11 -12 -12 -11 -11 -11 -11 -10 -11 -11 -10 -10 -11 -11 -11 -11 -11 -11 -11 -11 -12 -13 -13 -13
-5 -6 -6 -7 -8 -8 -9 -9 -9 -10 -11 -11 -12 -12 -12 -12 -12 -12 -12 -12 -13 -14 -15 -17 -19 -21 -20 -15 -12 -12 -11 -12 -12 -12 -12 -12 -12 -12 -12 -13 -13 -14 -24 -26
-7 -8 -8 -8 -8 -9 -9 -10 -10 -11 -12 -13 -12 -12 -12 -12 -12 -12 -13 -13 -13 -15 -19 -24 -28 -28 -27 -25 -18 -12 -12 -12 -13 -13 -13 -13 -13 -13 -13 -14 -14 -15 -15 -21
-9 -9 -9 -9 -9 -10 -10 -11 -12 -12 -12 -13 -13 -13 -13 -13 -13 -15 -18 -20 -15 -14 -22 -29 -30 -28 -29 -28 -20 -13 -13 -13 -13 -13 -14 -14 -14 -14 -14 -15 -15 -16 -16 -17
-10 -10 -10 -11 -11 -11 -12 -12 -12 -13 -13 -13 -13 -14 -16 -21 -24 -26 -23 -18 -23 -25 -26 -29 -19 -16 -23 -24 -19 -14 -14 -14 -14 -15 -15 -15 -15 -15 -16 -18 -16 -16 -17 -17
-11 -12 -12 -12 -13 -13 -13 -13 -13 -13 -14 -15 -17 -19 -20 -20 -22 -22 -14 -13 -15 -25 -23 -18 -23 -22 -19 -21 -16 -15 -15 -15 -15 -16 -16 -16 -16 -16 -17 -17 -17 -17 -18 -18
-12 -13 -13 -13 -13 -13 -13 -13 -14 -14 -16 -18 -20 -20 -17 -15 -16 -16 -19 -20 -16 -22 -18 -17 -20 -30 -30 -21 -16 -17 -17 -17 -16 -16 -17 -17 -17 -17 -17 -18 -18 -18 -19 -19
-12 -13 -13 -13 -13 -13 -13 -13 -14 -16 -16 -16 -16 -16 -15 -15 -15 -15 -14 -16 -17 -19 -17 -18 -26 -28 -29 -18 -18 -18 -18 -18 -18 -18 -18 -18 -18 -19 -19 -19 -19 -19 -20 -20
-12 -12 -13 -13 -13 -13 -12 -13 -14 -14 -15 -15 -15 -16 -16 -14 -14 -16 -17 -18 -19 -21 -19 -21 -24 -24 -24 -19 -19 -19 -19 -19 -19 -19 -19 -19 -20 -20 -20 -20 -20 -20 -21 -21
-12 -12 -12 -12 -12 -11 -12 -13 -13 -13 -14 -14 -14 -15 -16 -16 -16 -16 -17 -18 -19 -19 -18 -19 -21 -22 -20 -19 -20 -20 -20 -19 -20 -20 -20 -20 -20 -20 -20 -20 -21 -21 -22 -21
-11 -11 -11 -12 -12 -12 -13 -13 -14 -14 -14 -14 -13 -14 -15 -16 -17 -17 -18 -18 -19 -19 -19 -19 -19 -20 -20 -19 -20 -20 -20 -20 -20 -20 -20 -21 -20 -21 -21 -21 -22 -22 -22 -22
-12 -13 -12 -13 -13 -14 -14 -14 -14 -14 -14 -14 -14 -14 -15 -16 -17 -18 -18 -18 -18 -18 -19 -19 -19 -19 -20 -20 -20 -20 -20 -20 -20 -21 -21 -21 -21 -21 -21 -22 -22 -22 -22 -22

GFSNGP_850_dewp_102.txt.gz
Dewpoint
4 2 1 5 6 5 1 -1 7 3 7 5 4 3 3 2 1 0 -0 -1 -1 -1 -1 -1 1 1 1 3 6 8 9 10 10 10 10 9 9 9 8 8 9 9 9 9
5 1 3 1 -3 -3 -4 -2 -0 5 7 4 3 3 2 1 0 -1 -1 -2 -2 -1 -1 -0 -0 1 0 0 2 4 6 8 9 9 9 8 8 10 10 10 10 10 9 10
-1 -5 -3 1 -3 -1 -0 -1 2 6 5 3 2 0 -0 -0 -1 -2 -2 -2 -2 -2 -2 -1 -0 -1 1 -0 0 1 3 4 6 7 8 9 9 9 9 9 9 10 10 10
-2 -3 5 0 -1 1 1 0 -1 -1 2 1 -0 -2 -2 -3 -3 -3 -2 -2 -3 -2 -2 -2 -1 -0 -0 1 0 0 1 1 2 3 5 6 8 8 8 8 8 8 8 8
2 1 1 1 0 1 4 4 0 0 0 1 -1 -1 -3 -3 -3 -3 -3 -4 -4 -4 -4 -3 -2 -1 -0 -0 0 0 0 0 1 1 2 2 2 3 3 5 7 8 7 7
0 -1 5 2 -1 -2 -2 4 1 -1 -1 1 1 4 -2 -4 -4 -4 -4 -5 -5 -5 -5 -4 -4 -3 -1 -1 -1 -1 -1 -1 -0 0 1 1 0 0 0 1 0 1 2 3
1 1 2 -1 -2 -2 3 2 1 -1 -2 -2 -2 -3 -4 -4 -4 -4 -4 -6 -5 -5 -5 -6 -5 -4 -3 -4 -3 -4 -3 -1 -1 -0 0 0 0 -1 -1 0 0 -0 -0 -0
2 3 3 -2 -2 0 -0 -1 -1 -0 -1 -2 -3 -4 -5 -5 -5 -5 -4 -6 -6 -6 -6 -6 -6 -6 -5 -5 -5 -4 -3 -2 -3 -2 -1 -2 -1 -2 -3 -2 -1 -1 -0 -1
1 1 -0 -2 -1 -2 -1 -2 -2 -2 -2 -2 -3 -4 -5 -6 -6 -7 -7 -7 -7 -7 -6 -7 -7 -6 -6 -6 -6 -6 -5 -4 -3 -3 -3 -3 -3 -4 -4 -3 -2 -3 -3 -4
1 -1 -2 -2 -2 -2 -2 -2 -2 -3 -3 -2 -3 -4 -5 -6 -7 -7 -7 -7 -7 -7 -7 -8 -8 -7 -7 -6 -6 -6 -6 -6 -5 -4 -4 -4 -5 -5 -4 -5 -5 -6 -6 -6
-0 -2 -2 -3 -3 -3 -3 -3 -4 -4 -5 -5 -5 -6 -6 -7 -7 -7 -7 -7 -7 -7 -8 -9 -9 -8 -7 -7 -6 -7 -7 -7 -7 -8 -7 -6 -6 -6 -6 -7 -6 -6 -6 -6
-0 -1 -2 -2 -3 -3 -5 -5 -6 -6 -6 -7 -6 -6 -7 -7 -8 -8 -8 -8 -8 -9 -9 -10 -9 -8 -7 -7 -7 -8 -8 -8 -8 -8 -8 -8 -8 -8 -8 -8 -7 -7 -7 -7
-1 -2 -3 -4 -3 -4 -6 -7 -8 -7 -7 -7 -7 -7 -7 -8 -8 -9 -9 -9 -9 -10 -10 -10 -9 -9 -8 -8 -8 -8 -8 -9 -9 -8 -8 -8 -9 -9 -9 -9 -8 -8 -8 -8
-2 -2 -2 -3 -5 -6 -7 -7 -8 -8 -8 -8 -8 -9 -9 -10 -10 -10 -10 -11 -11 -11 -10 -10 -10 -9 -9 -9 -9 -9 -9 -9 -9 -9 -9 -10 -10 -10 -10 -10 -10 -10 -10 -10
-4 -4 -5 -6 -6 -7 -7 -8 -8 -9 -9 -9 -9 -9 -10 -11 -11 -11 -11 -11 -11 -12 -12 -11 -10 -10 -10 -10 -10 -10 -9 -10 -10 -10 -10 -10 -10 -10 -10 -11 -11 -11 -11 -11
-5 -6 -6 -6 -7 -7 -7 -7 -8 -8 -9 -10 -10 -11 -11 -12 -12 -12 -11 -12 -12 -13 -13 -15 -15 -15 -11 -11 -11 -11 -11 -11 -11 -11 -11 -11 -11 -11 -11 -12 -12 -13 -15 -13
-5 -5 -6 -7 -8 -8 -8 -9 -9 -10 -11 -11 -12 -12 -12 -12 -12 -12 -12 -12 -13 -16 -17 -21 -22 -24 -23 -15 -13 -12 -12 -12 -12 -12 -12 -12 -12 -12 -12 -13 -14 -17 -27 -21
-7 -7 -7 -7 -7 -8 -9 -9 -10 -11 -11 -12 -12 -12 -12 -12 -12 -13 -14 -17 -15 -14 -19 -27 -27 -25 -27 -22 -15 -12 -12 -12 -13 -13 -14 -13 -13 -13 -13 -14 -14 -15 -15 -18
-8 -9 -9 -9 -9 -9 -10 -11 -11 -12 -12 -13 -13 -13 -13 -14 -17 -20 -21 -20 -17 -15 -23 -28 -21 -18 -24 -22 -15 -13 -13 -13 -13 -13 -13 -13 -14 -14 -14 -14 -15 -15 -16 -16
-9 -9 -10 -10 -10 -11 -12 -12 -12 -13 -13 -13 -13 -16 -18 -20 -21 -23 -18 -15 -15 -16 -26 -27 -27 -17 -19 -22 -16 -14 -14 -14 -14 -15 -15 -14 -15 -15 -15 -17 -16 -16 -16 -17
-11 -12 -12 -12 -13 -13 -13 -13 -13 -14 -14 -15 -16 -18 -20 -19 -19 -20 -18 -13 -14 -17 -21 -16 -18 -26 -25 -22 -16 -15 -15 -15 -15 -15 -15 -15 -16 -16 -16 -16 -16 -17 -17 -17
-12 -13 -13 -13 -13 -13 -13 -13 -14 -14 -16 -17 -17 -17 -16 -13 -13 -14 -14 -15 -15 -16 -19 -16 -18 -27 -29 -20 -16 -16 -16 -16 -16 -16 -16 -16 -16 -16 -17 -17 -17 -18 -18 -18
-12 -12 -13 -13 -12 -13 -14 -14 -14 -15 -15 -15 -15 -16 -16 -15 -14 -15 -14 -15 -16 -18 -19 -18 -19 -25 -26 -21 -17 -17 -17 -17 -17 -17 -17 -18 -18 -18 -18 -18 -18 -19 -19 -19
-11 -12 -12 -12 -13 -13 -12 -13 -14 -14 -15 -16 -15 -16 -17 -16 -15 -14 -15 -16 -17 -19 -20 -18 -19 -24 -22 -18 -18 -18 -18 -18 -18 -18 -18 -19 -19 -19 -19 -19 -20 -20 -20 -20
-12 -12 -12 -13 -11 -11 -12 -12 -12 -12 -12 -13 -13 -13 -15 -15 -16 -16 -17 -17 -17 -18 -18 -18 -18 -20 -19 -19 -19 -19 -19 -19 -19 -20 -19 -19 -19 -19 -20 -20 -20 -21 -21 -22
-11 -10 -11 -12 -12 -12 -13 -13 -13 -13 -13 -12 -12 -13 -13 -15 -16 -17 -17 -17 -17 -18 -19 -18 -18 -19 -20 -19 -19 -19 -19 -20 -19 -20 -20 -20 -20 -20 -20 -20 -21 -21 -21 -21
-12 -13 -11 -12 -12 -13 -13 -14 -15 -13 -14 -15 -15 -15 -14 -15 -16 -16 -17 -18 -18 -18 -18 -18 -19 -18 -19 -19 -20 -20 -20 -20 -20 -20 -20 -21 -21 -20 -21 -21 -21 -22 -21 -22

GFSNGP_850_dewp_105.txt.gz
Dewpoint
6 5 4 6 6 6 5 6 8 7 6 5 3 2 1 1 0 -0 -1 -2 -2 -1 -1 -1 -0 -0 1 1 3 5 7 9 10 10 10 10 10 9 9 9 9 9 8 8
7 4 4 6 3 1 4 6 6 6 6 3 2 1 -0 -0 -1 -1 -1 -2 -2 -2 -2 -1 -1 -1 -0 1 1 3 3 5 6 9 10 10 10 9 10 9 9 9 9 9
6 1 3 6 3 2 2 2 3 5 4 1 -0 -1 -2 -2 -2 -2 -2 -3 -4 -3 -3 -2 -1 -1 -1 0 1 1 2 2 2 5 8 9 10 9 9 9 9 9 9 9
1 2 6 3 1 2 2 1 1 1 1 -0 -2 -3 -3 -3 -3 -3 -3 -4 -4 -4 -4 -3 -2 -1 -1 -0 0 0 1 0 1 1 3 6 7 8 8 8 8 9 8 8
4 5 4 1 -1 0 3 2 -0 -0 0 -1 -1 -2 -4 -4 -3 -3 -4 -5 -5 -5 -4 -4 -3 -2 -1 -1 -1 -0 -1 0 -0 -1 0 2 3 3 4 5 4 6 5 5
3 4 5 0 -2 -2 -1 1 0 -1 -2 -2 -0 -0 -3 -4 -4 -3 -4 -4 -6 -6 -5 -5 -5 -3 -3 -2 -2 -2 -2 -2 -0 -1 -1 -0 0 -0 1 1 1 1 1 2
3 4 1 -1 -2 -3 2 1 -0 -1 -2 -3 -3 -4 -4 -4 -4 -4 -5 -5 -6 -6 -6 -5 -5 -5 -4 -4 -4 -3 -3 -2 -2 -2 -1 -1 -0 -1 0 1 1 1 1 1
2 2 1 -2 -2 -1 -0 -1 -1 -1 -2 -3 -4 -4 -6 -6 -6 -7 -7 -7 -7 -7 -7 -7 -6 -6 -6 -6 -5 -5 -4 -2 -2 -2 -2 -2 -1 -1 -1 -0 0 -0 -0 -0
1 0 -1 -2 -1 -2 -2 -2 -1 -1 -2 -4 -5 -6 -6 -7 -7 -7 -7 -7 -7 -7 -8 -7 -6 -6 -6 -7 -6 -6 -5 -5 -4 -4 -3 -3 -3 -3 -2 -2 -2 -2 -3 -3
1 -0 -1 -1 -2 -2 -2 -2 -2 -3 -3 -4 -4 -5 -6 -7 -7 -7 -7 -7 -8 -8 -9 -9 -8 -7 -6 -6 -7 -7 -7 -7 -6 -5 -5 -5 -4 -4 -4 -4 -4 -4 -4 -5
-0 -1 -2 -2 -3 -3 -3 -4 -4 -5 -5 -5 -6 -6 -7 -7 -8 -8 -8 -8 -8 -9 -10 -10 -9 -7 -7 -7 -7 -7 -7 -8 -8 -8 -8 -7 -6 -7 -6 -6 -6 -5 -6 -6
-1 -1 -2 -3 -3 -4 -5 -6 -7 -6 -7 -7 -7 -7 -7 -8 -8 -8 -9 -9 -9 -10 -9 -9 -9 -9 -8 -8 -8 -8 -8 -8 -8 -8 -8 -9 -9 -8 -8 -7 -7 -7 -7 -7
-2 -2 -2 -3 -4 -5 -7 -8 -8 -8 -7 -7 -7 -8 -8 -9 -9 -10 -10 -10 -10 -10 -10 -9 -9 -9 -9 -10 -9 -9 -9 -9 -9 -8 -9 -9 -9 -9 -9 -9 -8 -8 -9 -9
-2 -3 -3 -3 -4 -6 -7 -8 -8 -8 -8 -8 -9 -10 -10 -10 -11 -11 -10 -11 -11 -10 -10 -10 -10 -10 -10 -10 -10 -10 -10 -10 -10 -10 -10 -10 -10 -10 -10 -10 -10 -10 -10 -10
-4 -5 -5 -6 -7 -7 -8 -8 -8 -8 -9 -9 -10 -10 -11 -11 -11 -11 -11 -11 -11 -11 -12 -13 -12 -10 -10 -10 -11 -11 -10 -10 -10 -11 -10 -11 -11 -11 -11 -11 -11 -11 -11 -11
-5 -6 -6 -7 -7 -8 -8 -8 -8 -9 -10 -10 -11 -11 -12 -12 -12 -12 -12 -12 -13 -14 -16 -18 -20 -18 -12 -12 -12 -11 -12 -11 -11 -11 -11 -11 -11 -11 -12 -12 -14 -15 -12 -13
-5 -5 -6 -7 -8 -8 -9 -10 -10 -11 -11 -11 -12 -12 -12 -12 -12 -12 -13 -15 -15 -15 -23 -27 -27 -27 -21 -13 -12 -12 -12 -12 -13 -12 -12 -12 -12 -12 -13 -14 -16 -23 -18 -16
-6 -7 -7 -7 -8 -9 -9 -10 -11 -11 -12 -12 -12 -12 -12 -13 -14 -17 -18 -15 -15 -16 -23 -28 -25 -26 -24 -14 -13 -13 -12 -12 -13 -14 -14 -13 -13 -13 -13 -14 -15 -16 -17 -18
-8 -9 -9 -8 -8 -9 -10 -11 -12 -12 -13 -13 -13 -14 -17 -21 -23 -23 -19 -15 -15 -15 -21 -26 -23 -21 -23 -15 -14 -14 -14 -13 -13 -13 -14 -14 -14 -14 -14 -15 -15 -15 -16 -17
-9 -10 -10 -10 -10 -11 -12 -13 -13 -13 -14 -14 -16 -18 -20 -20 -19 -21 -16 -14 -14 -15 -19 -21 -20 -21 -23 -19 -15 -15 -15 -14 -14 -15 -14 -15 -15 -15 -16 -16 -16 -16 -17 -17
-11 -12 -12 -12 -13 -13 -13 -13 -14 -14 -14 -16 -18 -18 -16 -14 -15 -15 -15 -15 -15 -16 -17 -20 -19 -20 -28 -19 -17 -16 -16 -15 -15 -15 -16 -16 -16 -16 -16 -16 -17 -17 -17 -18
-13 -13 -13 -13 -13 -14 -14 -14 -14 -14 -15 -15 -15 -16 -16 -16 -16 -15 -15 -15 -16 -16 -18 -19 -21 -22 -26 -21 -18 -17 -17 -16 -16 -16 -16 -16 -17 -17 -17 -17 -18 -18 -18 -19
-13 -13 -13 -13 -14 -14 -14 -14 -15 -15 -16 -17 -17 -17 -17 -18 -17 -15 -15 -16 -16 -17 -19 -21 -21 -22 -25 -23 -20 -18 -18 -18 -18 -18 -18 -18 -18 -18 -18 -18 -19 -19 -19 -19
-12 -13 -13 -14 -14 -14 -13 -14 -15 -14 -14 -14 -14 -14 -14 -15 -17 -17 -17 -17 -17 -18 -19 -19 -19 -20 -23 -19 -19 -19 -19 -18 -18 -19 -18 -19 -19 -19 -19 -19 -20 -20 -20 -20
-13 -13 -14 -13 -11 -11 -11 -11 -12 -12 -12 -12 -13 -13 -13 -14 -15 -15 -16 -18 -18 -18 -19 -19 -19 -19 -19 -20 -19 -19 -20 -19 -19 -19 -20 -19 -19 -20 -20 -20 -20 -20 -21 -21
-12 -11 -11 -12 -14 -14 -14 -14 -13 -14 -14 -14 -14 -14 -14 -14 -14 -15 -16 -17 -19 -18 -18 -18 -18 -19 -19 -19 -20 -19 -20 -20 -20 -20 -20 -20 -20 -20 -20 -20 -21 -21 -21 -22
-12 -13 -13 -12 -11 -12 -13 -14 -14 -16 -15 -15 -17 -17 -18 -16 -15 -15 -16 -17 -18 -18 -17 -18 -18 -18 -18 -19 -19 -19 -20 -20 -20 -20 -20 -21 -21 -21 -21 -21 -21 -21 -21 -22